Time,TemperatureF,DewpointF,PressureIn,WindDirection,WindDirectionDegrees,WindSpeedMPH,WindSpeedGustMPH,Humidity,HourlyPrecipIn,Conditions,Clouds,dailyrainin,SolarRadiationWatts/m^2,SoftwareType,DateUTC
2013-04-22 00:21:00,42.0,37.0,-100.00,WSW,252,3.0,4.0,82,0.00,,,0.00,1.000000,,2013-04-22 07:21:00,
2013-04-22 00:32:00,42.0,37.0,-100.00,WSW,252,3.0,4.0,82,0.00,,,0.00,1.000000,,2013-04-22 07:32:00,
2013-04-22 00:42:00,42.0,37.0,-100.00,WSW,252,3.0,4.0,82,0.00,,,0.00,1.000000,,2013-04-22 07:42:00,
2013-04-22 00:52:00,42.0,37.0,-100.00,WSW,252,3.0,4.0,82,0.00,,,0.00,1.000000,,2013-04-22 07:52:00,
2013-04-22 02:21:00,35.0,34.0,-100.00,East,94,3.0,7.0,95,-99.99,,,0.00,1.000000,,2013-04-22 09:21:00,
2013-04-22 02:33:00,35.0,34.0,-100.00,East,94,3.0,7.0,95,-99.99,,,0.00,1.000000,,2013-04-22 09:33:00,
2013-04-22 02:42:00,35.0,34.0,-100.00,East,94,3.0,7.0,95,-99.99,,,0.00,1.000000,,2013-04-22 09:42:00,
2013-04-22 02:52:00,35.0,34.0,-100.00,East,94,3.0,7.0,95,-99.99,,,0.00,1.000000,,2013-04-22 09:52:00,
2013-04-22 03:22:00,35.0,33.0,-100.00,East,94,4.0,5.0,93,0.00,,,0.00,1.000000,,2013-04-22 10:22:00,
2013-04-22 03:32:00,35.0,33.0,-100.00,East,94,4.0,5.0,93,0.00,,,0.00,1.000000,,2013-04-22 10:32:00,
2013-04-22 03:42:00,35.0,33.0,-100.00,East,94,4.0,5.0,93,0.00,,,0.00,1.000000,,2013-04-22 10:42:00,
2013-04-22 03:52:00,35.0,33.0,-100.00,East,94,4.0,5.0,93,0.00,,,0.00,1.000000,,2013-04-22 10:52:00,
2013-04-22 04:22:00,34.0,32.0,-100.00,East,90,5.0,6.0,91,0.00,,,0.00,1.000000,,2013-04-22 11:22:00,
2013-04-22 04:32:00,34.0,32.0,-100.00,East,90,5.0,6.0,91,0.00,,,0.00,1.000000,,2013-04-22 11:32:00,
2013-04-22 04:42:00,34.0,32.0,-100.00,East,90,5.0,6.0,91,0.00,,,0.00,1.000000,,2013-04-22 11:42:00,
2013-04-22 04:52:00,34.0,32.0,-100.00,East,90,5.0,6.0,91,0.00,,,0.00,1.000000,,2013-04-22 11:52:00,
2013-04-22 05:21:00,31.0,30.0,-100.00,NE,54,8.0,14.0,96,0.00,,,0.00,1.000000,,2013-04-22 12:21:00,
2013-04-22 05:31:00,31.0,30.0,-100.00,NE,54,8.0,14.0,96,0.00,,,0.00,1.000000,,2013-04-22 12:31:00,
2013-04-22 05:42:00,31.0,30.0,-100.00,NE,54,8.0,14.0,96,0.00,,,0.00,1.000000,,2013-04-22 12:42:00,
2013-04-22 05:52:00,31.0,30.0,-100.00,NE,54,8.0,14.0,96,0.00,,,0.00,1.000000,,2013-04-22 12:52:00,
2013-04-22 06:22:00,31.0,29.0,-100.00,ENE,65,6.0,14.0,93,0.00,,,0.00,1.000000,,2013-04-22 13:22:00,
2013-04-22 06:31:00,31.0,29.0,-100.00,ENE,65,6.0,14.0,93,0.00,,,0.00,1.000000,,2013-04-22 13:31:00,
2013-04-22 06:41:00,31.0,29.0,-100.00,ENE,65,6.0,14.0,93,0.00,,,0.00,1.000000,,2013-04-22 13:41:00,
2013-04-22 06:52:00,31.0,29.0,-100.00,ENE,65,6.0,14.0,93,0.00,,,0.00,1.000000,,2013-04-22 13:52:00,
2013-04-22 07:21:00,32.0,31.0,-100.00,NE,52,7.0,10.0,95,0.00,,,0.00,12.000000,,2013-04-22 14:21:00,
2013-04-22 07:33:00,32.0,31.0,-100.00,NE,52,7.0,10.0,95,0.00,,,0.00,12.000000,,2013-04-22 14:33:00,
2013-04-22 07:42:00,32.0,31.0,-100.00,NE,52,7.0,10.0,95,0.00,,,0.00,12.000000,,2013-04-22 14:42:00,
2013-04-22 07:51:00,32.0,31.0,-100.00,NE,52,7.0,10.0,95,0.00,,,0.00,12.000000,,2013-04-22 14:51:00,
2013-04-22 08:22:00,38.0,33.0,-100.00,NE,46,8.0,13.0,81,0.00,,,0.00,152.000000,,2013-04-22 15:22:00,
2013-04-22 08:33:00,38.0,33.0,-100.00,NE,46,8.0,13.0,81,0.00,,,0.00,152.000000,,2013-04-22 15:33:00,
2013-04-22 08:42:00,38.0,33.0,-100.00,NE,46,8.0,13.0,81,0.00,,,0.00,152.000000,,2013-04-22 15:42:00,
2013-04-22 08:53:00,38.0,33.0,-100.00,NE,46,8.0,13.0,81,0.00,,,0.00,152.000000,,2013-04-22 15:53:00,
2013-04-22 09:23:00,42.0,32.0,-100.00,NE,43,9.0,15.0,68,0.00,,,-99.99,380.000000,,2013-04-22 16:23:00,
2013-04-22 09:33:00,42.0,32.0,-100.00,NE,43,9.0,15.0,68,0.00,,,-99.99,380.000000,,2013-04-22 16:33:00,
2013-04-22 09:42:00,42.0,32.0,-100.00,NE,43,9.0,15.0,68,0.00,,,-99.99,380.000000,,2013-04-22 16:42:00,
2013-04-22 09:52:00,42.0,32.0,-100.00,NE,43,9.0,15.0,68,0.00,,,-99.99,380.000000,,2013-04-22 16:52:00,
2013-04-22 10:22:00,45.0,29.0,-100.00,NE,47,7.0,17.0,54,0.00,,,0.00,416.000000,,2013-04-22 17:22:00,
2013-04-22 10:31:00,45.0,29.0,-100.00,NE,47,7.0,17.0,54,0.00,,,0.00,416.000000,,2013-04-22 17:31:00,
2013-04-22 10:42:00,45.0,29.0,-100.00,NE,47,7.0,17.0,54,0.00,,,0.00,416.000000,,2013-04-22 17:42:00,
2013-04-22 10:51:00,45.0,29.0,-100.00,NE,47,7.0,17.0,54,0.00,,,0.00,416.000000,,2013-04-22 17:51:00,
2013-04-22 11:21:00,49.0,25.0,-100.00,NE,52,9.0,16.0,39,0.00,,,-99.99,708.000000,,2013-04-22 18:21:00,
2013-04-22 11:32:00,49.0,25.0,-100.00,NE,52,9.0,16.0,39,0.00,,,-99.99,708.000000,,2013-04-22 18:32:00,
2013-04-22 11:42:00,49.0,25.0,-100.00,NE,52,9.0,16.0,39,0.00,,,-99.99,708.000000,,2013-04-22 18:42:00,
2013-04-22 11:52:00,49.0,25.0,-100.00,NE,52,9.0,16.0,39,0.00,,,-99.99,708.000000,,2013-04-22 18:52:00,
2013-04-22 12:21:00,50.0,24.0,-100.00,NNE,20,10.0,17.0,36,0.00,,,0.00,890.000000,,2013-04-22 19:21:00,
2013-04-22 12:32:00,50.0,24.0,-100.00,NNE,20,10.0,17.0,36,0.00,,,0.00,890.000000,,2013-04-22 19:32:00,
2013-04-22 12:42:00,50.0,24.0,-100.00,NNE,20,10.0,17.0,36,0.00,,,0.00,890.000000,,2013-04-22 19:42:00,
2013-04-22 12:52:00,50.0,24.0,-100.00,NNE,20,10.0,17.0,36,0.00,,,0.00,890.000000,,2013-04-22 19:52:00,
2013-04-22 13:22:00,54.0,25.0,-100.00,NE,36,7.0,16.0,32,0.00,,,0.00,960.000000,,2013-04-22 20:22:00,
2013-04-22 13:32:00,54.0,25.0,-100.00,NE,36,7.0,16.0,32,0.00,,,0.00,960.000000,,2013-04-22 20:32:00,
2013-04-22 13:42:00,54.0,25.0,-100.00,NE,36,7.0,16.0,32,0.00,,,0.00,960.000000,,2013-04-22 20:42:00,
2013-04-22 13:51:00,54.0,25.0,-100.00,NE,36,7.0,16.0,32,0.00,,,0.00,960.000000,,2013-04-22 20:51:00,
2013-04-22 14:21:00,56.0,23.0,-100.00,NNE,27,7.0,14.0,28,0.00,,,0.00,953.000000,,2013-04-22 21:21:00,
2013-04-22 14:32:00,56.0,23.0,-100.00,NNE,27,7.0,14.0,28,0.00,,,0.00,953.000000,,2013-04-22 21:32:00,
2013-04-22 14:42:00,56.0,23.0,-100.00,NNE,27,7.0,14.0,28,0.00,,,0.00,953.000000,,2013-04-22 21:42:00,
2013-04-22 14:52:00,56.0,23.0,-100.00,NNE,27,7.0,14.0,28,0.00,,,0.00,953.000000,,2013-04-22 21:52:00,
2013-04-22 15:22:00,57.0,22.0,-100.00,NNE,14,9.0,18.0,25,0.00,,,0.00,937.000000,,2013-04-22 22:22:00,
2013-04-22 15:33:00,57.0,22.0,-100.00,NNE,14,9.0,18.0,25,0.00,,,0.00,937.000000,,2013-04-22 22:33:00,
2013-04-22 15:42:00,57.0,22.0,-100.00,NNE,14,9.0,18.0,25,0.00,,,0.00,937.000000,,2013-04-22 22:42:00,
2013-04-22 15:52:00,57.0,22.0,-100.00,NNE,14,9.0,18.0,25,0.00,,,0.00,937.000000,,2013-04-22 22:52:00,
2013-04-22 16:21:00,58.0,17.0,-100.00,NNE,13,9.0,18.0,20,0.00,,,0.00,841.000000,,2013-04-22 23:21:00,
2013-04-22 16:32:00,58.0,17.0,-100.00,NNE,13,9.0,18.0,20,0.00,,,0.00,841.000000,,2013-04-22 23:32:00,
2013-04-22 16:42:00,58.0,17.0,-100.00,NNE,13,9.0,18.0,20,0.00,,,0.00,841.000000,,2013-04-22 23:42:00,
2013-04-22 16:52:00,58.0,17.0,-100.00,NNE,13,9.0,18.0,20,0.00,,,0.00,841.000000,,2013-04-22 23:52:00,
2013-04-22 17:21:00,57.0,11.0,-100.00,NNE,26,10.0,21.0,16,0.00,,,0.00,693.000000,,2013-04-23 00:21:00,
2013-04-22 17:31:00,57.0,11.0,-100.00,NNE,26,10.0,21.0,16,0.00,,,0.00,693.000000,,2013-04-23 00:31:00,
2013-04-22 17:42:00,57.0,11.0,-100.00,NNE,26,10.0,21.0,16,0.00,,,0.00,693.000000,,2013-04-23 00:42:00,
2013-04-22 17:51:00,57.0,11.0,-100.00,NNE,26,10.0,21.0,16,0.00,,,0.00,693.000000,,2013-04-23 00:51:00,
2013-04-22 18:21:00,56.0,9.0,-100.00,NNE,24,8.0,19.0,15,0.00,,,0.00,505.000000,,2013-04-23 01:21:00,
2013-04-22 18:32:00,56.0,9.0,-100.00,NNE,24,8.0,19.0,15,0.00,,,0.00,505.000000,,2013-04-23 01:32:00,
2013-04-22 18:42:00,56.0,9.0,-100.00,NNE,24,8.0,19.0,15,0.00,,,0.00,505.000000,,2013-04-23 01:42:00,
2013-04-22 18:52:00,56.0,9.0,-100.00,NNE,24,8.0,19.0,15,0.00,,,0.00,505.000000,,2013-04-23 01:52:00,
2013-04-22 19:21:00,54.0,11.0,-100.00,NE,52,6.0,16.0,18,0.00,,,0.00,290.000000,,2013-04-23 02:21:00,
2013-04-22 19:32:00,54.0,11.0,-100.00,NE,52,6.0,16.0,18,0.00,,,0.00,290.000000,,2013-04-23 02:32:00,
2013-04-22 19:42:00,54.0,11.0,-100.00,NE,52,6.0,16.0,18,0.00,,,0.00,290.000000,,2013-04-23 02:42:00,
2013-04-22 19:52:00,54.0,11.0,-100.00,NE,52,6.0,16.0,18,0.00,,,0.00,290.000000,,2013-04-23 02:52:00,
2013-04-22 20:21:00,48.0,12.0,-100.00,East,83,4.0,12.0,23,0.00,,,0.00,87.000000,,2013-04-23 03:21:00,
2013-04-22 20:33:00,48.0,12.0,-100.00,East,83,4.0,12.0,23,0.00,,,0.00,87.000000,,2013-04-23 03:33:00,
2013-04-22 20:43:00,48.0,12.0,-100.00,East,83,4.0,12.0,23,0.00,,,0.00,87.000000,,2013-04-23 03:43:00,
2013-04-22 20:52:00,48.0,12.0,-100.00,East,83,4.0,12.0,23,0.00,,,0.00,87.000000,,2013-04-23 03:52:00,
2013-04-22 21:23:00,43.0,14.0,-100.00,ENE,61,2.0,8.0,30,0.00,,,0.00,2.000000,,2013-04-23 04:23:00,
2013-04-22 21:33:00,43.0,14.0,-100.00,ENE,61,2.0,8.0,30,0.00,,,0.00,2.000000,,2013-04-23 04:33:00,
2013-04-22 21:43:00,43.0,14.0,-100.00,ENE,61,2.0,8.0,30,0.00,,,0.00,2.000000,,2013-04-23 04:43:00,
2013-04-22 21:52:00,43.0,14.0,-100.00,ENE,61,2.0,8.0,30,0.00,,,0.00,2.000000,,2013-04-23 04:52:00,
2013-04-22 22:22:00,41.0,15.0,-100.00,NE,37,8.0,15.0,35,0.00,,,0.00,1.000000,,2013-04-23 05:22:00,
2013-04-22 22:32:00,41.0,15.0,-100.00,NE,37,8.0,15.0,35,0.00,,,0.00,1.000000,,2013-04-23 05:32:00,
2013-04-22 22:42:00,41.0,15.0,-100.00,NE,37,8.0,15.0,35,0.00,,,0.00,1.000000,,2013-04-23 05:42:00,
2013-04-22 22:52:00,41.0,15.0,-100.00,NE,37,8.0,15.0,35,0.00,,,0.00,1.000000,,2013-04-23 05:52:00,
2013-04-22 23:21:00,38.0,18.0,-100.00,NE,45,8.0,14.0,44,0.00,,,0.00,1.000000,,2013-04-23 06:21:00,
2013-04-22 23:32:00,38.0,18.0,-100.00,NE,45,8.0,14.0,44,0.00,,,0.00,1.000000,,2013-04-23 06:32:00,
2013-04-22 23:41:00,38.0,18.0,-100.00,NE,45,8.0,14.0,44,0.00,,,0.00,1.000000,,2013-04-23 06:41:00,
2013-04-22 23:52:00,38.0,18.0,-100.00,NE,45,8.0,14.0,44,0.00,,,0.00,1.000000,,2013-04-23 06:52:00,